CW1118 Weather Reports


time (UTC)temp
F
wind
direction
speed
knots
gust
knots
rain 1hr
in
rain 24hr
in
rain mn
in
humidity
%
barometer
mb
20260510172956 90 223 2.6 9.6 0.00 0.00 0.00 57 1015.6
20260510171458 90 202 5.2 9.6 0.00 0.00 0.00 59 1015.8
20260510170956 89 211 3.5 8.7 0.00 0.00 0.00 61 1016.0
20260510165956 88 212 2.6 7.8 0.00 0.00 0.00 63 1016.0
20260510165459 88 200 5.2 7.8 0.00 0.00 0.00 62 1016.2
20260510164958 89 235 2.6 7.8 0.00 0.00 0.00 62 1016.2
20260510164457 88 190 2.6 8.7 0.00 0.00 0.00 64 1016.2
20260510163459 88 210 3.5 7.0 0.00 0.00 0.00 65 1016.5
20260510162456 87 210 0.9 7.8 0.00 0.00 0.00 68 1016.6
20260510161959 86 213 1.7 7.8 0.00 0.00 0.00 67 1016.6
20260510161458 86 190 3.5 6.1 0.00 0.00 0.00 68 1016.6
20260510160958 86 181 2.6 5.2 0.00 0.00 0.00 71 1016.6
20260510160458 86 148 1.7 5.2 0.00 0.00 0.00 69 1016.6
20260510160001 86 122 2.6 5.2 0.00 0.00 0.00 68 1016.6
20260510155457 86 201 2.6 6.1 0.00 0.00 0.00 70 1016.6
20260510154959 85 199 3.5 6.1 0.00 0.00 0.00 71 1016.6
20260510153954 85 196 4.3 7.8 0.00 0.00 0.00 71 1016.7
20260510153459 84 200 2.6 6.1 0.00 0.00 0.00 72 1016.7
20260510152957 84 208 0.9 8.7 0.00 0.00 0.00 71 1016.7
20260510151958 84 207 4.3 9.6 0.00 0.00 0.00 74 1016.7
20260510151458 84 200 0.9 4.3 0.00 0.00 0.00 73 1016.7
20260510150958 83 211 0.9 8.7 0.00 0.00 0.00 74 1016.7
20260510150001 83 202 3.5 6.1 0.00 0.00 0.00 75 1016.7
20260510145457 83 192 4.3 7.0 0.00 0.00 0.00 75 1016.6
20260510144957 82 194 2.6 7.0 0.00 0.00 0.00 75 1016.6
20260510144459 83 194 4.3 6.1 0.00 0.00 0.00 74 1016.6
20260510143958 82 181 3.5 6.1 0.00 0.00 0.00 74 1016.6
20260510143458 83 200 4.3 7.8 0.00 0.00 0.00 74 1016.6
20260510142958 83 208 4.3 7.8 0.00 0.00 0.00 75 1016.6
20260510142457 82 210 3.5 7.0 0.00 0.00 0.00 76 1016.6
20260510141959 81 193 5.2 9.6 0.00 0.00 0.00 76 1016.6
20260510141458 81 205 5.2 9.6 0.00 0.00 0.00 76 1016.6
20260510140955 81 199 3.5 8.7 0.00 0.00 0.00 77 1016.6
20260510140455 81 208 4.3 7.8 0.00 0.00 0.00 78 1016.6
20260510135457 80 194 3.5 6.1 0.00 0.00 0.00 80 1016.5
20260510134957 79 207 3.5 6.1 0.00 0.00 0.00 81 1016.5
20260510134457 79 211 4.3 6.1 0.00 0.00 0.00 81 1016.5
20260510133958 78 202 2.6 5.2 0.00 0.00 0.00 83 1016.4
20260510132957 78 205 1.7 6.1 0.00 0.00 0.00 84 1016.4
20260510132454 77 196 1.7 6.1 0.00 0.00 0.00 85 1016.3
20260510131956 77 196 1.7 6.1 0.00 0.00 0.00 85 1016.3
20260510131458 76 219 1.7 5.2 0.00 0.00 0.00 86 1016.3
20260510130959 76 200 1.7 5.2 0.00 0.00 0.00 87 1016.3
20260510130457 76 207 2.6 5.2 0.00 0.00 0.00 87 1016.3
20260510125956 75 184 2.6 4.3 0.00 0.00 0.00 88 1016.3
20260510125458 75 169 1.7 5.2 0.00 0.00 0.00 88 1016.1
20260510124957 74 202 1.7 5.2 0.00 0.00 0.00 90 1016.1
20260510123957 74 211 2.6 6.1 0.00 0.00 0.00 91 1016.1
20260510123458 73 203 3.5 6.1 0.00 0.00 0.00 92 1016.1
20260510122955 73 196 2.6 5.2 0.00 0.00 0.00 94 1016.1
20260510122457 72 202 2.6 6.1 0.00 0.00 0.00 94 1016.0
20260510121958 72 208 3.5 6.1 0.00 0.00 0.00 96 1016.0
20260510121457 71 219 1.7 3.5 0.00 0.00 0.00 97 1016.0
20260510120957 71 228 1.7 3.5 0.00 0.00 0.00 97 1015.7
20260510120456 70 169 0.9 1.7 0.00 0.00 0.00 97 1015.7
20260510120001 70 169 0.0 0.9 0.00 0.00 0.00 96 1015.7
20260510115457 69 169 0.0 0.0 0.00 0.00 0.00 96 1015.5
20260510114958 69 169 0.0 0.0 0.00 0.00 0.00 96 1015.5
20260510114454 69 169 0.0 0.0 0.00 0.00 0.00 95 1015.5
20260510113957 69 169 0.0 0.0 0.00 0.00 0.00 95 1015.2
20260510113458 69 169 0.0 0.0 0.00 0.00 0.00 95 1015.2
20260510112957 69 169 0.0 0.0 0.00 0.00 0.00 95 1015.2
20260510112458 69 169 0.0 0.0 0.00 0.00 0.00 94 1015.0
20260510111957 69 169 0.0 0.0 0.00 0.00 0.00 94 1015.0
20260510111500 69 169 0.0 0.0 0.00 0.00 0.00 94 1015.0
20260510110957 70 169 0.0 0.0 0.00 0.00 0.00 95 1014.6
20260510110455 70 169 0.0 0.0 0.00 0.00 0.00 95 1014.6
20260510110000 70 169 0.0 0.0 0.00 0.00 0.00 94 1014.6
20260510105457 70 169 0.0 0.0 0.00 0.00 0.00 94 1014.5
20260510104457 70 169 0.0 0.0 0.00 0.00 0.00 93 1014.5
20260510103458 70 169 0.0 0.0 0.00 0.00 0.00 93 1014.5
20260510102958 70 169 0.0 0.0 0.00 0.00 0.00 93 1014.5
20260510102457 71 169 0.0 0.0 0.00 0.00 0.00 94 1014.0
20260510101957 71 169 0.0 0.0 0.00 0.00 0.00 94 1014.0
20260510100958 71 169 0.0 0.0 0.00 0.00 0.00 94 1014.0
20260510100459 71 169 0.0 0.0 0.00 0.00 0.00 94 1014.0
20260510100000 71 169 0.0 0.9 0.00 0.00 0.00 94 1014.0
20260510095457 71 169 0.0 0.9 0.00 0.00 0.00 94 1013.8
20260510094959 72 169 0.0 0.9 0.00 0.00 0.00 94 1013.8
20260510094726 72 169 0.0 0.9 0.00 0.00 0.00 95 1013.8
20260510093957 72 169 0.0 0.9 0.00 0.00 0.00 94 1013.6
20260510093458 72 169 0.0 0.9 0.00 0.00 0.00 95 1013.6
20260510092458 71 169 0.0 1.7 0.00 0.00 0.00 94 1013.6
20260510091958 71 169 0.0 1.7 0.00 0.00 0.00 94 1013.6
20260510091457 72 163 0.0 1.7 0.00 0.00 0.00 94 1013.6
20260510090954 72 163 0.0 1.7 0.00 0.00 0.00 94 1013.5
20260510090458 72 163 0.9 1.7 0.00 0.00 0.00 93 1013.5
20260510085954 72 163 0.0 1.7 0.00 0.00 0.00 93 1013.5
20260510085500 72 163 0.0 1.7 0.00 0.00 0.00 93 1013.3
20260510084957 72 161 0.9 0.9 0.00 0.00 0.00 93 1013.3
20260510084458 72 161 0.0 0.9 0.00 0.00 0.00 93 1013.3
20260510083957 72 161 0.0 0.9 0.00 0.00 0.00 93 1013.1
20260510083458 72 161 0.0 1.7 0.00 0.00 0.00 93 1013.1
20260510082958 72 161 0.0 1.7 0.00 0.00 0.00 93 1013.1
20260510082458 72 161 0.0 2.6 0.00 0.00 0.00 93 1013.0
20260510081957 72 161 0.9 2.6 0.00 0.00 0.00 93 1013.0
20260510081456 72 153 0.9 1.7 0.00 0.00 0.00 93 1013.0
20260510080958 72 149 0.9 3.5 0.00 0.00 0.00 93 1013.1
20260510080456 72 148 1.7 4.3 0.00 0.00 0.00 93 1013.1
20260510080007 72 188 0.9 4.3 0.00 0.00 0.00 94 1013.1
20260510075454 72 207 1.7 3.5 0.00 0.00 0.00 94 1013.1
20260510074457 72 190 0.9 2.6 0.00 0.00 0.00 94 1013.1
20260510073958 72 198 0.9 4.3 0.00 0.00 0.00 94 1013.2
20260510073458 72 202 0.9 4.3 0.00 0.00 0.00 94 1013.2
20260510072957 72 136 0.9 1.7 0.00 0.00 0.00 94 1013.2
20260510072455 72 136 0.9 2.6 0.00 0.00 0.00 94 1013.4
20260510071457 72 51 0.9 1.7 0.00 0.00 0.00 95 1013.4
20260510070957 72 50 0.9 1.7 0.00 0.00 0.00 95 1013.5
20260510070457 71 50 0.9 1.7 0.00 0.00 0.00 96 1013.5
20260510065953 71 50 0.9 1.7 0.00 0.00 0.00 96 1013.5
20260510065457 71 50 0.0 0.9 0.00 0.00 0.00 96 1013.5
20260510065000 71 49 0.0 0.9 0.00 0.00 0.00 96 1013.5
20260510064457 71 50 0.0 0.9 0.00 0.00 0.00 96 1013.5
20260510063957 71 49 0.0 1.7 0.00 0.00 0.00 96 1014.0
20260510062957 70 49 0.9 1.7 0.00 0.00 0.00 97 1014.0
20260510062458 69 38 0.9 0.9 0.00 0.00 0.00 96 1014.1
20260510061958 69 38 0.0 0.0 0.00 0.00 0.00 95 1014.1
20260510060958 68 38 0.0 0.0 0.00 0.00 0.00 95 1014.2
20260510060459 68 38 0.0 0.9 0.00 0.00 0.00 95 1014.2
20260510060001 68 38 0.0 0.9 0.00 0.00 0.00 95 1014.2
20260510055455 68 38 0.0 0.0 0.00 0.00 0.00 95 1014.5
20260510054455 68 38 0.0 0.9 0.00 0.00 0.00 93 1014.5
20260510053957 68 38 0.0 0.9 0.00 0.00 0.00 93 1014.9
20260510053457 69 38 0.0 0.0 0.00 0.00 0.00 94 1014.9
20260510052958 69 38 0.0 0.0 0.00 0.00 0.00 93 1014.9
20260510052456 69 38 0.0 0.0 0.00 0.00 0.00 93 1015.0
20260510051958 69 38 0.0 0.0 0.00 0.00 0.00 93 1015.0
20260510051457 69 38 0.0 0.0 0.00 0.00 0.00 93 1015.0
20260510050456 69 38 0.0 0.0 0.00 0.00 0.00 93 1015.1
20260510045955 69 38 0.0 0.0 0.00 0.00 0.00 93 1015.1
20260510044958 70 38 0.0 0.0 0.00 0.00 0.00 92 1015.0
20260510044458 70 38 0.0 0.0 0.00 0.00 0.00 93 1015.0
20260510043955 70 38 0.0 0.0 0.00 0.00 0.00 93 1015.3
20260510043457 70 38 0.0 0.0 0.00 0.00 0.00 92 1015.3
20260510042955 70 38 0.0 0.0 0.00 0.00 0.00 92 1015.3
20260510041958 70 38 0.0 0.9 0.00 0.00 0.00 92 1015.1
20260510041458 70 38 0.0 0.9 0.00 0.00 0.00 91 1015.1
20260510040958 70 38 0.0 0.0 0.00 0.00 0.00 92 1015.2
20260510040458 70 38 0.0 0.0 0.00 0.00 0.00 92 1015.2
20260510040002 70 38 0.0 0.0 0.00 0.00 0.00 91 1015.2
20260510035500 69 38 0.0 0.0 0.00 0.00 0.00 91 1015.5
20260510034958 69 38 0.0 0.0 0.00 0.00 0.00 91 1015.5
20260510034459 69 38 0.0 0.0 0.00 0.00 0.00 91 1015.5
20260510033955 69 38 0.0 0.0 0.00 0.00 0.00 91 1015.4
20260510033458 69 38 0.0 0.0 0.00 0.00 0.00 91 1015.4
20260510032958 69 38 0.0 0.0 0.00 0.00 0.00 90 1015.4
20260510032500 69 38 0.0 0.0 0.00 0.00 0.00 90 1015.2
20260510031957 69 38 0.0 0.0 0.00 0.00 0.00 90 1015.2
20260510031456 69 38 0.0 0.9 0.00 0.00 0.00 90 1015.2
20260510031000 69 38 0.0 0.9 0.00 0.00 0.00 90 1015.0
20260510030457 70 39 0.0 0.0 0.00 0.00 0.00 88 1015.0
20260510030002 70 39 0.0 0.0 0.00 0.00 0.00 88 1015.0
20260510025458 70 39 0.0 0.0 0.00 0.00 0.00 88 1015.0
20260510024957 70 39 0.0 0.0 0.00 0.00 0.00 88 1015.0
20260510024459 70 39 0.0 0.0 0.00 0.00 0.00 88 1015.0
20260510024001 70 39 0.0 0.0 0.00 0.00 0.00 87 1014.8
20260510023455 71 39 0.0 0.0 0.00 0.00 0.00 87 1014.8
20260510022958 71 39 0.0 0.0 0.00 0.00 0.00 87 1014.8
20260510022459 71 39 0.0 0.0 0.00 0.00 0.00 86 1014.5
20260510021957 71 39 0.0 0.0 0.00 0.00 0.00 87 1014.5
20260510021458 71 39 0.0 0.0 0.00 0.00 0.00 87 1014.5
20260510020959 71 39 0.0 0.0 0.00 0.00 0.00 86 1014.5
20260510020457 72 39 0.0 0.0 0.00 0.00 0.00 85 1014.5
20260510020002 72 39 0.0 0.0 0.00 0.00 0.00 85 1014.5
20260510015458 72 39 0.0 0.0 0.00 0.00 0.00 85 1014.5
20260510014959 72 39 0.0 0.0 0.00 0.00 0.00 85 1014.5
20260510014457 73 39 0.0 0.0 0.00 0.00 0.00 85 1014.5
20260510013957 73 39 0.0 0.9 0.00 0.00 0.00 85 1014.4
20260510013458 73 39 0.0 0.9 0.00 0.00 0.00 84 1014.4
20260510012957 73 38 0.0 0.0 0.00 0.00 0.00 84 1014.4
20260510011458 73 38 0.0 0.0 0.00 0.00 0.00 83 1014.2
20260510010957 73 38 0.0 0.9 0.00 0.00 0.00 83 1014.1
20260510010458 73 38 0.0 0.9 0.00 0.00 0.00 83 1014.1
20260510010002 73 38 0.0 0.0 0.00 0.00 0.00 83 1014.1
20260510005457 74 38 0.0 0.0 0.00 0.00 0.00 82 1013.8
20260510005000 74 38 0.0 0.9 0.00 0.00 0.00 82 1013.8
20260510004500 74 38 0.0 4.3 0.00 0.00 0.00 82 1013.8
20260510003957 74 17 0.0 1.7 0.00 0.00 0.00 82 1013.8
20260510002957 74 19 0.0 2.6 0.00 0.00 0.00 82 1013.8
20260510001957 75 19 0.0 2.6 0.00 0.00 0.00 81 1013.5
20260510001459 75 20 0.0 2.6 0.00 0.00 0.00 81 1013.5
20260510000958 75 298 0.9 2.6 0.00 0.00 0.00 80 1013.5
20260510000458 75 271 0.0 4.3 0.00 0.00 0.00 80 1013.5
20260509235954 75 293 0.9 5.2 0.00 0.00 0.00 80 1013.5
20260509235458 76 315 1.7 5.2 0.00 0.00 0.00 79 1013.4
20260509234958 76 57 0.9 4.3 0.00 0.00 0.00 79 1013.4
20260509234457 76 323 1.7 7.0 0.00 0.00 0.00 79 1013.4
20260509233959 76 346 2.6 7.0 0.00 0.00 0.00 79 1013.2
20260509233459 77 347 0.9 6.1 0.00 0.00 0.00 80 1013.2
20260509232958 77 360 1.7 7.8 0.00 0.00 0.00 79 1013.2
20260509232457 77 345 2.6 8.7 0.00 0.00 0.00 80 1013.3
20260509231959 78 10 1.7 8.7 0.00 0.00 0.00 80 1013.3
20260509231459 78 326 1.7 8.7 0.00 0.00 0.00 80 1013.3
20260509230955 79 350 2.6 7.8 0.00 0.00 0.00 81 1013.0
20260509230000 79 40 3.5 9.6 0.00 0.00 0.00 81 1013.0
20260509224459 81 23 2.6 11.3 0.00 0.00 0.00 78 1012.9
20260509223955 81 350 1.7 11.3 0.00 0.00 0.00 77 1012.5
20260509222957 82 5 2.6 6.1 0.00 0.00 0.00 74 1012.5
20260509222455 82 15 1.7 6.1 0.00 0.00 0.00 71 1012.5
20260509221957 82 250 1.7 7.0 0.00 0.00 0.00 70 1012.5
20260509221458 83 31 3.5 7.0 0.00 0.00 0.00 70 1012.5
20260509220958 83 322 2.6 6.1 0.00 0.00 0.00 70 1012.4
20260509220457 83 333 2.6 6.1 0.00 0.00 0.00 69 1012.4
20260509220002 83 355 2.6 5.2 0.00 0.00 0.00 69 1012.4
20260509215454 84 323 2.6 6.1 0.00 0.00 0.00 69 1012.1
20260509214458 84 347 2.6 7.0 0.00 0.00 0.00 69 1012.1
20260509213959 85 331 1.7 7.8 0.00 0.00 0.00 68 1011.9
20260509213457 86 23 2.6 7.8 0.00 0.00 0.00 66 1011.9
20260509212455 87 348 1.7 6.1 0.00 0.00 0.00 63 1011.8
20260509211957 87 22 2.6 7.8 0.00 0.00 0.00 61 1011.8
20260509210957 87 281 0.9 5.2 0.00 0.00 0.00 61 1011.8
20260509210457 88 304 1.7 6.1 0.00 0.00 0.00 60 1011.8
20260509210000 88 284 2.6 10.4 0.00 0.00 0.00 58 1011.8
20260509205458 88 330 3.5 10.4 0.00 0.00 0.00 59 1011.8
20260509204957 88 296 3.5 8.7 0.00 0.00 0.00 59 1011.8
20260509204457 88 333 2.6 7.8 0.00 0.00 0.00 59 1011.8
20260509203957 88 315 2.6 8.7 0.00 0.00 0.00 60 1011.8
20260509203457 88 316 2.6 9.6 0.00 0.00 0.00 60 1011.8
20260509202959 88 309 2.6 9.6 0.00 0.00 0.00 61 1011.8
20260509202454 87 310 1.7 12.2 0.00 0.00 0.00 63 1011.9
20260509200958 86 333 3.5 8.7 0.00 0.00 0.00 62 1011.9
20260509200500 86 298 2.6 8.7 0.00 0.00 0.00 63 1011.9
20260509200001 86 326 3.5 8.7 0.00 0.00 0.00 64 1011.9
20260509195458 86 5 1.7 7.0 0.00 0.00 0.00 65 1011.8
20260509194500 85 346 5.2 9.6 0.00 0.00 0.00 67 1011.8
20260509193959 85 292 1.7 7.0 0.00 0.00 0.00 67 1011.9
20260509193459 85 330 3.5 6.1 0.00 0.00 0.00 67 1011.9
20260509192958 85 310 2.6 5.2 0.00 0.00 0.00 68 1011.9
20260509191959 85 324 0.9 4.3 0.00 0.00 0.00 70 1012.1
20260509191455 85 53 0.9 4.3 0.00 0.00 0.00 68 1012.1
20260509190957 86 24 1.7 7.0 0.00 0.00 0.00 67 1012.1